Location: Unspecified
(43.9500°N, 64.7900°W)
Time: 20:54:43
(UTC-04:00)

Tiangong 2 - Visible Passes

Search period start: 13 December 2018 00:00
Search period end: 23 December 2018 00:00
Orbit: 383 x 391 km, 42.8° (Epoch: 13 December)

Date Brightness Start Highest point End Pass type
(mag) Time Alt. Az. Time Alt. Az. Time Alt. Az.
18 Dec 3.8 18:30:49 10° SSE 18:30:54 10° SSE 18:30:54 10° SSE visible
19 Dec 3.8 19:06:26 10° SW 19:07:16 15° SSW 19:07:16 15° SSW visible
20 Dec 3.0 18:08:18 10° SSW 18:10:33 18° SSE 18:11:19 16° SE visible
21 Dec 2.3 18:45:12 10° SW 18:47:35 35° SSW 18:47:35 35° SSW visible
22 Dec 2.5 17:46:43 10° SW 17:49:29 28° SSE 17:51:32 15° ESE visible
22 Dec 4.0 19:22:53 10° WSW 19:23:48 18° WSW 19:23:48 18° WSW visible
